Dewpoint
28 29 28 30 31 29 29 31 29 31 28 27 26 26 27 32 30 31 29 28 28 29 31 35 50 57 58 58 59 60 61 61 61 61 62 63 63 63 62 62 62 62 61 61
28 30 30 28 29 32 27 28 33 33 33 36 36 35 34 33 33 32 32 32 31 31 32 32 43 54 58 58 58 59 59 60 60 61 62 62 62 61 60 60 60 60 59 57
20 22 22 23 25 26 28 33 31 29 30 33 33 34 32 32 33 33 33 32 33 33 33 33 36 46 54 58 58 59 59 58 58 58 58 59 59 59 59 58 57 56 54 53
21 21 16 18 19 25 27 27 31 28 28 30 29 26 29 28 29 30 31 32 35 35 34 34 36 43 53 58 58 58 58 58 58 57 58 58 58 57 56 55 54 53 51 50
20 17 16 18 22 23 22 21 26 28 29 29 30 30 29 28 29 30 33 38 38 38 34 32 32 35 46 55 57 58 58 58 58 58 58 57 56 55 54 52 51 49 48 47
22 18 12 14 16 20 25 22 23 29 31 31 31 27 25 26 30 31 35 37 36 32 31 32 35 39 46 53 56 57 57 58 57 57 58 57 56 53 51 50 48 46 45 44
22 20 20 19 21 24 19 17 21 24 27 31 30 27 25 28 30 30 29 32 31 29 30 33 36 38 44 51 54 55 57 58 57 57 57 56 53 51 50 47 45 43 42 41
22 21 17 22 22 19 19 22 23 23 23 24 27 27 29 30 32 29 26 27 28 28 32 34 38 38 39 45 51 55 56 57 57 56 55 53 51 49 47 45 43 40 39 38
24 20 25 26 23 25 25 25 24 24 25 26 26 26 27 29 29 29 29 26 27 30 32 35 36 36 36 41 48 54 55 56 55 54 51 51 49 47 46 44 42 39 39 38
27 23 29 30 29 30 31 31 31 30 30 29 28 28 28 28 28 27 28 28 30 32 33 33 32 36 40 40 45 52 54 54 51 50 49 49 48 46 44 43 41 39 38 37
22 24 25 26 29 30 30 30 29 29 29 29 30 30 29 28 28 28 30 31 31 31 30 30 30 36 40 44 49 51 52 49 48 47 47 45 45 44 44 43 42 40 39 37
22 25 28 28 30 31 30 30 30 31 31 32 30 29 28 30 29 29 28 29 29 30 29 30 34 40 43 47 49 50 47 45 45 44 43 41 39 36 38 38 38 37 37 36
27 30 31 32 32 31 31 32 32 31 32 32 33 33 31 30 29 30 30 29 28 29 31 35 41 42 44 46 49 48 45 43 42 41 39 38 38 36 34 35 36 36 36 36
32 31 29 30 31 32 32 32 32 33 33 34 34 33 35 35 33 30 28 28 28 29 36 39 41 42 44 46 46 45 43 40 40 39 38 37 37 36 36 34 33 33 35 35
30 30 30 32 33 31 31 32 32 30 30 30 31 32 34 34 36 34 32 29 28 34 37 41 42 42 43 43 42 40 39 39 38 38 37 36 36 35 35 34 32 30 31 32
30 32 32 32 32 29 31 32 32 31 31 30 31 32 32 34 36 36 34 32 37 38 40 40 40 40 40 40 38 38 37 37 36 35 35 35 35 34 34 33 31 31 31 31
30 29 30 30 29 30 31 32 33 32 31 31 30 32 35 36 35 37 36 37 39 40 40 39 38 39 39 38 37 36 35 36 35 35 35 35 34 33 32 32 31 32 31 29
33 32 32 31 29 29 29 30 31 32 31 31 31 31 31 34 37 36 39 39 38 37 37 37 37 37 37 37 36 36 35 35 34 33 33 32 32 32 32 31 30 28 27 27
30 29 29 29 30 29 29 29 30 32 32 31 31 30 31 31 37 36 36 35 34 33 34 36 36 36 36 36 35 34 33 33 32 32 32 31 31 30 30 28 27 28 27 27
29 30 29 29 29 29 28 29 30 31 32 31 32 31 30 30 31 30 30 29 30 30 32 32 33 32 32 33 34 33 33 32 31 31 30 30 29 28 27 27 27 27 28 28
28 28 28 28 29 29 29 30 30 30 31 31 31 31 31 31 31 32 30 29 31 32 32 32 32 32 33 33 33 33 31 30 29 28 28 27 27 27 27 27 27 27 28 27
28 28 28 28 28 29 29 30 30 30 30 30 30 31 31 31 32 31 31 30 31 32 32 32 32 32 32 31 31 30 29 28 27 27 27 27 27 26 27 26 26 27 28 28
28 27 27 27 28 28 28 28 29 30 29 29 29 29 30 30 29 29 29 31 33 32 32 31 30 30 30 30 30 29 28 27 27 27 27 27 27 27 26 26 27 27 27 27
28 26 26 27 26 26 26 26 27 28 28 28 29 30 29 29 29 29 29 29 30 31 30 29 28 28 29 29 29 28 28 27 27 27 25 25 26 26 26 25 26 26 26 26
25 25 24 24 24 25 25 25 24 25 25 25 25 27 29 30 28 28 28 28 26 28 27 27 27 27 27 27 27 26 27 27 26 26 26 26 26 26 25 25 25 25 25 25
23 22 21 20 20 21 21 21 21 21 22 23 22 23 25 27 27 28 30 29 26 26 27 28 29 30 28 26 26 25 26 25 26 27 27 26 26 25 25 25 25 25 25 25
20 19 18 17 17 16 16 17 18 17 18 19 18 18 19 22 22 24 25 26 29 28 27 27 28 26 26 26 26 26 27 27 27 26 26 25 25 25 25 25 25 25 25 24
Wind_Speed
16 19 20 14 17 19 14 19 14 18 30 39 34 30 25 18 16 13 10 9 11 13 15 19 15 11 10 12 11 12 14 16 17 16 17 18 19 18 16 15 15 14 14 12
8 15 17 18 15 17 26 20 18 12 16 30 33 29 27 23 15 20 20 14 14 16 16 19 16 13 10 11 12 12 11 14 11 13 14 14 14 16 15 15 14 13 13 14
22 12 15 15 25 24 18 11 11 17 19 17 26 27 27 27 23 22 22 20 15 16 18 18 16 13 13 14 13 15 16 13 11 11 13 14 13 13 15 15 14 13 13 13
19 11 16 15 13 23 27 24 25 20 18 23 29 30 23 26 26 23 21 24 20 12 12 13 14 13 14 11 16 19 18 17 17 17 16 16 17 16 14 13 15 14 14 16
13 19 18 23 10 18 21 30 24 24 26 30 35 25 22 19 21 25 26 24 17 10 10 14 18 16 12 14 16 18 22 23 22 21 22 21 22 22 18 17 15 13 14 18
12 16 17 23 23 28 23 27 24 27 33 32 30 21 30 20 22 20 16 14 14 15 13 15 16 13 12 14 16 23 25 26 22 22 23 24 21 22 17 18 17 16 14 13
24 21 13 22 21 2 11 25 31 25 28 28 27 25 32 16 16 15 16 16 16 17 19 17 15 13 15 14 22 24 18 20 22 23 23 21 21 20 20 22 21 19 19 15
15 16 22 25 8 19 25 28 27 16 18 21 23 29 32 33 23 21 22 22 20 18 19 19 14 12 17 19 23 14 16 19 21 23 21 22 23 20 23 25 25 22 22 18
9 11 18 9 16 14 17 20 25 19 19 22 26 29 29 35 27 22 21 21 18 18 21 21 16 13 19 25 15 15 19 21 22 23 24 27 28 27 24 25 25 23 23 21
8 15 26 28 22 14 14 17 23 19 23 25 28 30 32 30 29 24 23 22 19 19 20 23 17 17 21 21 15 17 20 21 21 25 24 24 23 26 26 25 24 24 22 20
24 26 24 16 12 17 26 27 30 30 29 29 26 30 31 32 32 25 21 19 16 18 19 24 22 20 21 18 14 17 18 18 20 20 24 21 18 20 24 22 28 29 24 24
25 16 16 16 18 22 24 26 26 28 33 33 31 35 37 33 34 28 25 19 17 18 19 24 22 22 19 13 16 17 18 19 19 21 19 21 23 21 18 20 24 24 24 23
12 12 21 20 17 21 27 29 28 30 31 35 35 33 37 38 39 33 23 21 21 21 21 22 21 21 15 14 18 20 20 20 20 21 22 23 22 26 31 24 26 27 28 25
11 15 16 14 17 29 29 30 29 25 26 29 34 34 37 38 40 39 36 36 26 23 21 21 20 19 15 16 19 19 19 24 24 22 23 23 24 25 27 30 28 21 19 21
13 12 18 19 20 25 28 30 34 30 27 28 28 34 35 39 40 42 36 29 26 23 24 18 16 14 13 16 19 22 21 20 21 22 21 25 25 24 24 25 23 22 18 15
13 14 13 16 20 24 26 30 34 34 33 32 30 30 37 39 39 36 31 26 21 21 18 17 16 15 16 20 22 20 17 25 24 24 24 24 23 24 23 22 20 18 16 15
10 13 19 21 21 23 25 25 27 28 29 30 33 30 29 28 32 31 29 20 21 18 18 20 18 16 18 22 25 22 20 26 26 22 21 22 22 22 19 19 17 14 13 12
10 12 14 13 17 19 22 25 27 31 30 30 28 24 21 14 22 22 17 16 17 17 14 15 18 19 19 24 25 23 23 28 27 23 22 21 20 19 18 18 16 13 11 11
6 8 10 13 15 17 18 21 25 28 29 29 27 26 24 23 7 19 23 24 24 24 15 19 20 20 20 25 25 24 26 26 25 22 22 23 19 16 16 17 17 14 12 11
8 10 11 12 14 16 19 21 22 24 29 30 30 31 30 30 28 29 32 28 21 20 23 24 25 21 19 25 10 26 24 23 24 20 20 20 17 18 17 15 14 12 11 9
7 10 12 15 16 16 18 18 19 23 25 29 30 31 31 31 29 26 30 30 24 27 27 25 24 22 16 20 14 15 18 20 20 19 19 20 18 17 16 14 12 11 10 8
5 8 10 11 14 16 17 19 21 23 25 26 27 28 30 30 27 29 26 22 19 23 23 20 21 13 9 18 13 21 16 18 17 16 17 16 15 15 14 13 11 9 9 9
4 6 8 11 12 12 13 18 19 20 22 24 26 25 21 20 21 21 21 17 17 19 16 14 17 16 12 12 16 17 19 18 17 15 14 13 13 13 13 12 10 8 6 4
3 4 5 6 8 11 14 16 16 18 19 20 23 23 22 19 20 17 14 16 15 14 12 10 11 13 12 13 15 15 14 15 15 13 12 11 10 9 9 7 7 5 4 2
5 5 6 6 8 9 10 12 13 16 16 19 21 21 22 18 16 15 16 15 16 13 11 11 13 13 12 13 13 13 12 13 13 11 10 10 8 7 7 7 6 5 4 2
7 6 7 9 8 7 8 9 11 13 14 14 17 17 17 17 18 18 17 17 17 15 12 9 9 9 10 10 10 10 11 12 12 10 9 9 9 8 7 6 6 5 4 3
8 8 7 7 8 9 9 10 11 12 12 11 12 15 15 15 16 17 18 18 16 15 13 11 11 9 7 7 7 8 8 8 8 8 7 7 6 6 6 6 6 6 5 3
Wind_Direction
246 266 287 255 268 277 271 283 270 270 248 252 259 266 273 279 292 292 299 325 334 334 319 321 315 290 270 249 206 198 196 186 188 181 174 171 173 168 168 172 183 183 173 174
272 246 248 257 262 260 267 255 269 253 284 280 289 287 279 269 270 283 292 291 296 300 302 312 313 289 257 233 217 191 208 207 188 178 176 178 167 166 173 171 169 170 172 167
269 267 266 264 241 239 244 234 234 244 242 248 273 272 277 282 275 266 270 279 280 283 289 298 298 289 263 232 204 209 197 198 192 187 191 180 165 167 173 168 162 159 158 153
264 274 255 256 247 223 215 230 219 237 241 242 250 263 261 255 268 276 277 277 272 272 292 305 307 303 276 228 210 207 209 208 183 183 186 171 164 168 165 158 161 159 157 150
239 245 267 287 249 220 227 251 242 234 247 252 259 270 273 262 253 252 255 258 271 284 288 296 303 306 286 248 224 215 213 206 195 186 177 174 178 170 163 155 147 151 154 143
237 242 248 252 261 238 243 263 254 225 230 241 256 272 269 261 237 248 250 260 275 292 300 304 304 303 289 252 222 223 217 212 199 189 190 184 177 164 154 147 142 136 133 135
232 243 253 258 256 24 216 249 254 245 243 243 251 250 273 286 252 251 258 266 280 293 287 290 294 296 282 260 237 233 222 207 201 190 190 183 158 154 149 140 135 137 133 131
232 244 266 243 246 220 239 259 269 271 261 263 263 267 267 267 255 257 263 271 274 277 279 285 270 267 276 261 256 239 210 197 195 183 171 162 158 154 149 144 143 143 138 137
231 248 293 336 283 277 273 281 284 283 278 281 281 274 266 269 268 261 252 263 270 268 280 282 273 260 275 268 261 223 205 202 188 176 164 163 162 158 156 153 154 152 153 153
286 269 269 277 286 305 6 336 323 328 314 299 282 276 274 271 273 264 258 252 254 264 270 276 276 265 258 274 267 223 209 193 176 168 166 165 164 161 158 159 158 158 158 155
280 286 287 290 3 338 321 313 306 307 298 289 291 288 279 276 272 264 253 241 239 249 262 272 286 270 273 272 245 222 196 177 170 165 159 153 155 163 164 165 162 162 164 157
265 287 286 309 319 309 299 300 300 293 288 282 278 272 273 275 273 267 263 250 236 241 258 274 278 274 274 254 225 204 177 167 165 156 151 144 132 103 86 117 128 129 132 137
268 301 297 301 299 297 305 306 299 286 275 278 274 268 271 268 266 264 264 255 252 259 265 273 272 268 254 227 204 192 175 162 154 151 147 145 142 136 123 104 109 116 122 128
286 300 297 310 306 306 309 311 307 294 282 274 276 271 260 261 265 262 255 250 253 257 259 260 256 248 234 203 182 172 164 156 151 151 146 143 141 138 132 131 127 119 117 125
281 295 292 301 306 313 318 318 324 319 311 295 280 270 265 254 251 255 256 256 249 245 245 237 234 224 190 167 153 145 152 150 141 137 142 135 131 130 126 122 120 121 118 109
296 298 302 318 313 318 318 326 331 326 320 311 299 278 268 250 250 247 248 241 213 222 216 202 196 177 162 146 133 130 139 130 128 128 130 126 124 124 123 123 127 129 133 134
307 319 325 315 319 322 322 323 325 320 319 319 315 300 309 241 239 235 237 215 200 198 181 173 168 157 152 141 130 133 135 120 117 116 117 117 118 117 119 121 123 120 137 141
282 276 287 308 316 322 319 318 326 336 337 335 333 329 329 309 228 213 176 152 129 121 136 141 140 138 138 130 125 133 128 114 112 111 112 111 111 113 115 116 118 129 144 128
358 342 347 345 344 331 325 330 333 338 344 348 354 359 6 8 205 132 125 123 118 106 96 105 111 116 120 116 122 117 110 108 107 115 117 117 117 115 119 125 129 140 137 131
20 20 12 7 3 356 348 343 342 348 351 358 9 19 26 34 54 76 85 82 90 98 95 91 89 84 79 88 95 106 111 114 117 121 122 118 123 123 124 127 130 131 125 127
18 22 15 11 6 7 4 358 359 3 0 5 14 22 30 38 49 64 76 82 76 80 84 81 87 78 91 102 97 99 110 114 119 126 124 123 129 127 126 127 128 131 136 138
15 22 16 8 18 15 6 5 13 16 18 16 15 21 29 31 40 53 51 67 67 72 80 80 84 100 121 107 135 112 113 115 113 113 118 125 131 128 130 134 140 145 147 153
41 31 30 19 16 14 5 9 10 17 23 22 23 21 26 36 38 45 52 37 68 75 85 101 116 115 119 119 111 116 118 120 121 126 127 126 131 133 139 144 144 146 135 117
88 52 38 25 25 24 22 12 16 19 25 25 25 27 30 25 36 31 38 43 64 87 102 117 122 126 121 111 107 107 110 111 111 111 111 114 117 115 117 117 111 107 115 132
100 65 47 43 44 33 27 19 30 25 28 31 27 23 26 30 40 19 26 34 43 58 70 74 76 82 84 87 92 98 105 109 113 114 116 119 129 137 143 151 154 157 153 136
127 107 79 66 61 48 35 33 42 30 29 35 34 22 22 25 27 28 32 33 37 45 59 59 65 80 87 94 105 116 120 127 127 125 130 139 147 148 144 142 149 157 177 201
120 117 106 81 61 60 56 53 54 41 32 31 39 28 27 28 31 34 30 29 33 37 40 43 46 56 79 101 111 119 120 121 122 131 131 128 136 157 167 177 188 197 197 218